Location: Helsinki
(60.1699°N, 24.9384°E)
Time: 23:58:10
(UTC+02:00)

A-11 Canister half - Pass Details

Date: 30 October 2020
Orbit: 1516 x 1684 km, 47.2° (Epoch: 26 November)

Event Time Altitude Azimuth Distance (km) Brightness Sun altitude
Rises 02:25:16 0° 277° (W) 4,880 - -37.0°
Reaches altitude 10° 02:29:29 10° 263° (W) 3,863 - -36.6°
Maximum altitude 02:35:57 20° 221° (SW) 3,072 - -36.0°
Drops below altitude 10° 02:42:18 10° 178° (S) 3,763 - -35.5°
Sets 02:46:22 0° 163° (SSE) 4,717 - -35.1°
